Location: Gro�wechsungen
(51.4926°N, 10.6901°E)
Time: 19:47:25
(UTC+00:00)

SPOT 3 Rocket - Visible Passes

Search period start: 26 January 2021 00:00
Search period end: 05 February 2021 00:00
Orbit: 778 x 795 km, 98.7° (Epoch: 25 January)

Date Brightness Start Highest point End Pass type
(mag) Time Alt. Az. Time Alt. Az. Time Alt. Az.
26 Jan 5.4 18:46:10 18° N 18:46:10 18° N 18:47:37 10° N visible
26 Jan 6.3 20:26:49 12° NNW 20:26:49 12° NNW 20:27:16 10° NNW visible
27 Jan 5.4 18:15:12 16° NNE 18:15:12 16° NNE 18:16:39 10° N visible
27 Jan 5.9 19:55:51 17° NNW 19:55:51 17° NNW 19:56:56 10° NNW visible
28 Jan 5.5 17:44:14 12° NNE 17:44:14 12° NNE 17:45:15 10° NNE visible
28 Jan 5.5 19:24:52 20° N 19:24:52 20° N 19:26:24 10° N visible
29 Jan 5.3 18:53:54 20° N 18:53:54 20° N 18:55:42 10° N visible
29 Jan 6.2 20:34:33 13° NNW 20:34:33 13° NNW 20:35:12 10° NNW visible
30 Jan 5.2 18:22:56 18° NNE 18:22:56 18° NNE 18:24:49 10° N visible
30 Jan 5.8 20:03:35 18° NNW 20:03:35 18° NNW 20:04:56 10° NNW visible
31 Jan 5.4 17:51:57 14° NE 17:51:57 14° NE 17:53:34 10° NNE visible
31 Jan 5.4 19:32:36 22° N 19:32:36 22° N 19:34:27 10° NNW visible
01 Feb 5.1 19:01:38 24° N 19:01:38 24° N 19:03:47 10° N visible
01 Feb 6.2 20:42:16 14° NW 20:42:16 14° NW 20:43:08 10° NNW visible
02 Feb 5.1 18:30:39 21° NNE 18:30:39 21° NNE 18:32:57 10° N visible
02 Feb 5.7 20:11:18 20° NNW 20:11:18 20° NNW 20:12:54 10° NNW visible
03 Feb 5.2 17:59:40 16° NE 17:59:40 16° NE 18:01:49 10° NNE visible
03 Feb 5.2 19:40:19 25° NNW 19:40:19 25° NNW 19:42:28 10° NNW visible
04 Feb 5.5 17:28:42 11° NE 17:28:42 11° NE 17:29:46 10° NNE visible
04 Feb 4.9 19:09:20 27° N 19:09:20 27° N 19:11:51 10° N visible
04 Feb 6.2 20:49:59 15° NW 20:49:59 15° NW 20:51:01 10° NNW visible
